Flag for Germany Weather past 2 weeks in Leer, Lower Saxony, Germany

Now
65 °F

Fog.


Feels Like: 65 °F
Forecast: 59 / 71 °F
Wind: 2 mph from West

Location: Emden-Koenigspolder

Current Time: Jul 5, 2015 at 5:18:41 AM

Latest Report: Jul 5, 2015 at 4:00 AM


Visibility: 1 mi

Pressure: 30.10 "Hg

Humidity: 97%

Dew point: 64 °F

Location of LeerLocation

Historic Weather in Leer — Graph

°F

Leer temperature yesterday

Maximum temperature yesterday: 90 °F (at 4:00 PM)
Minimum temperature yesterday: 63 °F (at 4:00 AM)
Average temperature yesterday: 76 °F

Past Weeks' High & Low Weather Summary

 TemperatureHumidityPressure
High92 °F (Jul 2, 5:00 PM)100% (Jun 30, 5:00 AM)30.26 "Hg (Jun 30, 5:00 AM)
Low47 °F (Jun 23, 3:00 AM)39% (Jul 1, 4:00 PM)29.65 "Hg (Jun 22, 9:00 PM)
Average63 °F77%30.05 "Hg
* Reported Jun 20 4:00 AM — Jul 5 4:00 AM, Leer, Weather by CustomWeather, © 2015

Note: Actual official high and low records may vary slightly from our data, if they occured in-between our weather recording intervals... More about our weather records

Advertising

Leer weather history for previous 24 hours

 ConditionsComfort  
Time TempWeatherWind HumidityBarometerVisibility
4:00 AM
Sun, Jul 5
65 °FFog.2 mph97%30.10 "Hg1 mi
3:00 AM65 °FFog.N/A98%30.10 "Hg1 mi
2:00 AM65 °FFog.N/A97%30.09 "Hg2 mi
1:00 AM67 °FFog.2 mph94%30.10 "Hg2 mi
12:00 AM67 °FFog.3 mph93%30.08 "Hg2 mi
10:00 PM
Sat, Jul 4
72 °FFog.6 mph85%30.09 "Hg3 mi
9:00 PM77 °FOvercast.5 mph78%30.08 "Hg4 mi
8:00 PM81 °FPassing clouds.5 mph68%30.06 "Hg7 mi
7:00 PM85 °FPassing clouds.6 mph61%30.04 "Hg6 mi
6:00 PM88 °FScattered clouds.7 mph60%30.03 "Hg7 mi
4:00 PM90 °FSunny.5 mph56%30.02 "Hg6 mi
3:00 PM90 °FScattered clouds.5 mph55%30.02 "Hg11 mi
2:00 PM89 °FScattered clouds.5 mph56%30.02 "Hg5 mi
1:00 PM85 °FOvercast.6 mph59%30.03 "Hg10 mi
12:00 PM83 °FOvercast.5 mph62%30.05 "Hg10 mi
11:00 AM81 °FOvercast.6 mph64%30.05 "Hg9 mi
10:00 AM77 °FPartly sunny.6 mph67%30.06 "Hg12 mi
9:00 AM74 °FOvercast.5 mph75%30.08 "Hg10 mi
8:00 AM70 °FOvercast.3 mph83%30.10 "Hg6 mi
7:00 AM67 °FFog.2 mph88%30.10 "Hg4 mi
6:00 AM64 °FFog.2 mph94%30.12 "Hg2 mi
Weather by CustomWeather, © 2015

See weather overviewHow to use our weather pages